TimeEST,TemperatureF,Dew PointF,Humidity,Sea Level PressureIn,VisibilityMPH,Wind Direction,Wind SpeedMPH,Gust SpeedMPH,PrecipitationIn,Events,Conditions,WindDirDegrees,DateUTC
12:54 AM,41.0,-9999,N/A,29.71,10.0,West,8.1,-,N/A,,Overcast,260,2012-12-10 05:54:00
1:24 AM,39.2,-9999,N/A,29.69,10.0,WSW,13.8,-,N/A,,Overcast,250,2012-12-10 06:24:00
1:54 AM,39.0,-9999,N/A,29.71,10.0,West,16.1,25.3,N/A,,Overcast,280,2012-12-10 06:54:00
2:02 AM,39.2,-9999,N/A,29.70,10.0,West,18.4,-,N/A,,Overcast,270,2012-12-10 07:02:00
2:54 AM,39.0,-9999,N/A,29.71,10.0,WSW,8.1,-,N/A,,Overcast,250,2012-12-10 07:54:00
3:54 AM,37.9,-9999,N/A,29.71,10.0,WSW,11.5,-,N/A,,Overcast,250,2012-12-10 08:54:00
4:39 AM,37.4,-9999,N/A,29.69,10.0,West,11.5,-,N/A,,Overcast,260,2012-12-10 09:39:00
4:54 AM,37.9,-9999,N/A,29.70,10.0,West,12.7,-,N/A,,Overcast,270,2012-12-10 09:54:00
5:54 AM,37.9,33.1,83,29.70,10.0,WSW,8.1,-,N/A,,Overcast,240,2012-12-10 10:54:00
6:21 AM,35.6,32.0,87,29.68,9.0,West,16.1,25.3,N/A,,Overcast,270,2012-12-10 11:21:00
6:36 AM,35.6,30.2,81,29.69,10.0,West,15.0,-,N/A,,Overcast,280,2012-12-10 11:36:00
6:54 AM,34.0,30.0,85,29.73,10.0,West,18.4,24.2,N/A,,Overcast,270,2012-12-10 11:54:00
7:19 AM,33.8,28.4,81,29.72,10.0,West,16.1,-,N/A,,Overcast,260,2012-12-10 12:19:00
7:54 AM,33.1,28.9,85,29.75,9.0,WSW,11.5,-,N/A,,Overcast,250,2012-12-10 12:54:00
8:54 AM,32.0,28.0,85,29.75,7.0,WSW,9.2,-,N/A,,Overcast,240,2012-12-10 13:54:00
9:54 AM,32.0,28.0,85,29.76,5.0,WSW,11.5,-,N/A,,Overcast,240,2012-12-10 14:54:00
10:54 AM,30.9,27.0,85,29.79,5.0,SW,15.0,-,N/A,,Overcast,230,2012-12-10 15:54:00
11:35 AM,30.2,28.4,93,29.77,4.0,WSW,12.7,-,N/A,,Overcast,240,2012-12-10 16:35:00
11:45 AM,30.2,28.4,93,29.76,2.5,WSW,15.0,-,0.00,Rain,Light Freezing Rain,240,2012-12-10 16:45:00
11:54 AM,30.9,28.0,89,29.78,2.0,WSW,13.8,-,0.00,Rain,Light Freezing Rain,240,2012-12-10 16:54:00
12:45 PM,32.0,30.2,93,29.73,1.5,WSW,13.8,-,0.00,Rain,Light Freezing Rain,250,2012-12-10 17:45:00
12:54 PM,32.0,30.0,92,29.75,2.0,WSW,12.7,-,0.00,Rain,Light Freezing Rain,250,2012-12-10 17:54:00
1:04 PM,32.0,30.2,93,29.73,1.8,WSW,12.7,-,0.00,Rain,Light Freezing Rain,250,2012-12-10 18:04:00
1:24 PM,32.0,30.2,93,29.73,2.0,WSW,11.5,-,0.00,Rain,Light Freezing Rain,250,2012-12-10 18:24:00
1:31 PM,32.0,30.2,93,29.73,1.5,WSW,10.4,-,0.00,Snow,Light Snow,250,2012-12-10 18:31:00
1:38 PM,32.0,30.2,93,29.73,0.8,WSW,10.4,-,0.00,Snow,Light Snow,250,2012-12-10 18:38:00
1:54 PM,32.0,30.0,92,29.75,0.8,WSW,11.5,-,0.01,Snow,Light Snow,250,2012-12-10 18:54:00
2:28 PM,32.0,30.2,93,29.74,0.5,WSW,8.1,-,0.01,Fog-Snow,Snow,250,2012-12-10 19:28:00
2:37 PM,32.0,30.2,93,29.74,0.2,WSW,9.2,-,0.03,Fog-Snow,Heavy Snow,250,2012-12-10 19:37:00
2:51 PM,32.0,30.2,93,29.74,0.5,WSW,6.9,-,0.05,Fog-Snow,Snow,250,2012-12-10 19:51:00
2:54 PM,32.0,30.9,96,29.76,0.5,WSW,6.9,-,0.06,Fog-Snow,Snow,250,2012-12-10 19:54:00
3:18 PM,33.8,30.2,87,29.74,0.8,NW,3.5,-,0.02,Snow,Light Snow,310,2012-12-10 20:18:00
3:30 PM,33.8,30.2,87,29.74,1.8,WNW,4.6,-,0.02,Snow,Light Snow,300,2012-12-10 20:30:00
3:35 PM,33.8,30.2,87,29.74,3.0,NW,3.5,-,0.02,Snow,Light Snow,310,2012-12-10 20:35:00
3:54 PM,33.1,32.0,96,29.77,4.0,Calm,Calm,-,0.02,,Overcast,0,2012-12-10 20:54:00
4:37 PM,33.8,32.0,93,29.77,2.5,Calm,Calm,-,0.00,Snow,Light Snow,0,2012-12-10 21:37:00
4:40 PM,33.8,32.0,93,29.77,4.0,Calm,Calm,-,0.00,Snow,Light Snow,0,2012-12-10 21:40:00
4:54 PM,34.0,30.9,89,29.80,8.0,NW,4.6,-,0.00,Rain,Light Rain,320,2012-12-10 21:54:00
5:16 PM,33.8,30.2,87,29.79,10.0,NW,9.2,-,0.00,,Overcast,320,2012-12-10 22:16:00
5:54 PM,34.0,30.0,85,29.83,10.0,NW,4.6,-,0.00,,Overcast,310,2012-12-10 22:54:00
6:54 PM,34.0,28.9,82,29.83,10.0,NNW,5.8,-,0.00,,Overcast,330,2012-12-10 23:54:00
7:54 PM,34.0,28.9,82,29.87,9.0,WNW,9.2,-,0.00,Snow,Light Snow,290,2012-12-11 00:54:00
8:54 PM,32.0,30.0,92,29.89,4.0,WNW,6.9,-,0.01,Snow,Light Snow,300,2012-12-11 01:54:00
9:54 PM,32.0,30.0,92,29.90,3.0,NNW,5.8,-,0.00,Snow,Light Snow,330,2012-12-11 02:54:00
10:54 PM,32.0,30.0,92,29.92,10.0,WSW,5.8,-,0.00,,Overcast,250,2012-12-11 03:54:00
11:29 PM,32.0,28.4,87,29.91,10.0,WSW,4.6,-,N/A,,Overcast,250,2012-12-11 04:29:00
11:54 PM,32.0,28.9,88,29.92,9.0,NW,3.5,-,0.00,,Overcast,310,2012-12-11 04:54:00